Home   Weather   Bamyan   Past weeks

Flag for Afghanistan Past Weather in Bamyan, Afghanistan — Yesterday and Last 2 Weeks

Now
72 °F

Duststorm.


Feels Like: 77 °F
Forecast: 42 / 77 °F
Wind: 33 mph from Southwest

Location: Termez Airport

Current Time: Sep 30, 2016 at 12:59:25 AM

Latest Report: Sep 30, 2016 at 12:00 AM


Visibility: 1 mi

Pressure: 29.89 "Hg (22.40 "Hg at 2492m altitude)

Humidity: 38%

Dew Point: 45 °F

Location of BamyanLocation

Past Weather in Bamyan — Graph

°F

Bamyan Temperature Yesterday

Maximum temperature yesterday: 95 °F (at 2:00 PM)
Minimum temperature yesterday: 61 °F (at 4:00 AM)
Average temperature yesterday: 77 °F

High & Low Weather Summary for the Past Weeks

 TemperatureHumidityPressure
High102 °F (Sep 22, 3:30 PM)100% (Sep 15, 10:00 AM)30.01 "Hg (Sep 15, 10:00 AM)
Low57 °F (Sep 24, 6:00 AM)9% (Sep 16, 12:30 PM)29.65 "Hg (Sep 29, 1:30 PM)
Average79 °F37%29.81 "Hg
* Reported Sep 14 11:30 PM — Sep 29 11:30 PM, Bamyan, Weather by CustomWeather, © 2016

Note: Actual official high and low records may vary slightly from our data, if they occured in-between our weather recording intervals... More about our weather records

Advertising

Bamyan Weather History for the Previous 24 Hours

Scroll right to see more
 ConditionsComfort  
Time TempWeatherWind HumidityBarometerVisibility
11:30 PM
Thu, Sep 29
73 °FDuststorm.28 mph36%29.89 "Hg1 mi
11:00 PM73 °FDuststorm.26 mph36%29.86 "Hg1 mi
10:30 PM75 °FDuststorm.25 mph34%29.86 "Hg1 mi
10:00 PM77 °FDense fog.26 mph30%29.83 "Hg0 mi
9:30 PM81 °FDuststorm.23 mph24%29.80 "Hg0 mi
9:00 PM79 °FHaze.12 mph32%29.77 "Hg2 mi
8:30 PM79 °FClear.10 mph32%29.74 "Hg5 mi
8:00 PM73 °FClear.5 mph53%29.74 "Hg5 mi
7:30 PM77 °FClear.No wind42%29.71 "Hg10 mi
7:00 PM81 °FClear.No wind37%29.68 "Hg10 mi
6:30 PM81 °FClear.No wind34%29.68 "Hg10 mi
6:00 PM84 °FClear.2 mph31%29.65 "Hg10 mi
5:30 PM88 °FSunny.2 mph25%29.65 "Hg10 mi
5:00 PM90 °FSunny.5 mph26%29.65 "Hg10 mi
4:30 PM93 °FSunny.2 mph21%29.65 "Hg10 mi
4:00 PM95 °FSunny.3 mph18%29.65 "Hg10 mi
3:30 PM95 °FSunny.2 mph14%29.65 "Hg10 mi
3:00 PM93 °FPassing clouds.5 mph17%29.65 "HgN/A
2:30 PM95 °FSunny.1 mph14%29.65 "Hg10 mi
2:00 PM95 °FPassing clouds.3 mph16%29.65 "HgN/A
1:30 PM93 °FSunny.3 mph20%29.65 "Hg10 mi
1:00 PM93 °FPassing clouds.3 mph19%29.68 "HgN/A
12:30 PM91 °FSunny.1 mph23%29.68 "Hg10 mi
12:00 PM91 °FPassing clouds.5 mph18%29.68 "HgN/A
11:30 AM91 °FSunny.3 mph23%29.71 "Hg10 mi
11:00 AM90 °FSunny.5 mph22%29.71 "Hg10 mi
10:30 AM88 °FPassing clouds.5 mph25%29.74 "HgN/A
10:00 AM86 °FSunny.2 mph25%29.74 "Hg10 mi
9:30 AM82 °FSunny.No wind35%29.77 "Hg10 mi
9:00 AM79 °FPassing clouds.3 mph34%29.77 "HgN/A
8:30 AM75 °FPassing clouds.3 mph44%29.77 "HgN/A
8:00 AM72 °FSunny.5 mph50%29.77 "Hg10 mi
7:30 AM68 °FPassing clouds.6 mph60%29.77 "HgN/A
7:00 AM64 °FSunny.7 mph68%29.77 "Hg10 mi
6:30 AM63 °FSunny.7 mph68%29.77 "Hg10 mi
6:00 AM61 °FSunny.6 mph72%29.77 "Hg10 mi
5:30 AM61 °FClear.5 mph72%29.77 "Hg10 mi
5:00 AM61 °FClear.6 mph72%29.77 "Hg10 mi
4:30 AM61 °FClear.5 mph72%29.77 "Hg10 mi
4:00 AM61 °FClear.3 mph72%29.77 "Hg10 mi
3:30 AM63 °FClear.5 mph73%29.77 "Hg10 mi
3:00 AM63 °FClear.6 mph68%29.77 "Hg10 mi
2:30 AM63 °FClear.6 mph73%29.80 "Hg10 mi
2:00 AM63 °FClear.7 mph73%29.80 "Hg10 mi
1:30 AM63 °FClear.7 mph73%29.83 "Hg10 mi
1:00 AM64 °FClear.3 mph68%29.83 "Hg10 mi
12:30 AM64 °FClear.3 mph73%29.83 "Hg10 mi
12:00 AM66 °FClear.3 mph64%29.83 "Hg10 mi
Weather by CustomWeather, © 2016

See weather overviewHow to use our weather pages